Racecast

Alex Zittleman

Temperance Bedford (MI) · 12 · SECMI D1MONROE · Compare head to head

Athlete rating 134.0 2017 XC season
Best race 133.8 XC
Races 81
Seasons 6 2012 — 2017

RankedNation #3181·MI #411·MI D1 #291·SEC #38·Team #23 ?

Rating scale ?

Cross Country

2017 XC 127.4

Temperance Bedford (MI) · Grade 12

Date Meet Event Result Place Rating Difficulty PR/SR Flags
2017-11-04 Michigan International Speedway (MIS) 5000m 16:52 140th · 3rd on team 128.2 +0.022 ★CR CSR
2017-10-28 Lake Erie Metro Park OFFICIAL 5000m 17:07.7 29th · 5th on team 130.2 +0.055 ★CR CSR
2017-10-19 Hudson Mills Metropark - OFFICIAL 5000m 17:23.4 29th · 4th on team 127.0 +0.036
2017-10-10 Indian Creek OFFICIAL 5000m 16:48.3 3rd · 2nd on team 131.4 +0.039 ★PR ★CR SR CSR RSR
2017-10-07 Portage West MS 5000m 17:06.6 56th · 1st on team 130.1 +0.038 ★CR CSR
2017-09-30 Lake Erie Metro Park OFFICIAL 5000m 17:12.2 25th · 5th on team 129.0 +0.055 CR CSR
2017-09-23 Ella Sharp Park OFFICIAL 5000m 17:15.5 46th · 2nd on team 130.9 +0.038 ★CR CSR RSR
2017-09-12 Hudson Mills Metropark - OFFICIAL 5000m 17:01.3 32nd · 2nd on team 129.2 +0.036 ★CR CSR RSR
2017-09-09 Hedges Boyer Park 5000m 17:01.3 72nd · 4th on team 120.2 -0.036 PR ★CR SR CSR
2017-09-01 Oakland University 4000m 13:52 35th · 4th on team 124.4 +0.054 ★PR ★CR SR CSR RSR
2017-08-26 Walsh Park 5000m 17:10.6 6th · 2nd on team 121.2 -0.009 PR ★CR SR CSR RSR

2016 XC 124.9

Temperance Bedford (MI) · Grade 11

Date Meet Event Result Place Rating Difficulty PR/SR Flags
2016-10-20 Hudson Mills Metropark - OFFICIAL 5000m 17:27.3 26th · 4th on team 125.5 +0.036 CSR
2016-10-15 Hudson Mills Metropark - OFFICIAL 5000m 17:29.9 41st · 5th on team 126.4 +0.036 CSR
2016-10-01 Pearson's Metro Park 5000m 17:22.1 11th · 2nd on team 119.1 -0.022 ★CR CSR
2016-09-27 Pioneer HS 5000m 17:28.8 19th · 2nd on team 130.7 +0.067 ★CR CSR RSR
2016-09-24 Ella Sharp Park OFFICIAL 5000m 17:17.2 64th · 3rd on team 127.3 +0.038 PR CR SR CSR
2016-09-17 Springfield Oaks County Park OFFICIAL 5000m 19:05 73rd · 2nd on team 121.9 +0.067 CSR
2016-09-13 Heritage Park (Adrian) OFFICIAL 5000m 18:04.2 36th · 2nd on team 127.5 +0.084 ★CR CSR RSR
2016-09-10 Hedges Boyer Park 5000m 17:25.5 101st · 2nd on team 118.0 -0.036 CR SR CSR
2016-09-02 Oakland University 4000m 13:55.6 31st · 2nd on team 125.4 +0.054 PR CR SR CSR
2016-08-25 Heritage Park (Adrian) OFFICIAL 5000m 18:09.6 13th · 1st on team 126.8 +0.084 CR SR CSR RSR

2015 XC 123.5

Temperance Bedford (MI) · Grade 10

Date Meet Event Result Place Rating Difficulty PR/SR Flags
2015-11-07 Michigan International Speedway (MIS) 5000m 17:22.2 212th · 5th on team 124.5 +0.022 PR CR SR CSR
2015-10-22 Hudson Mills Metropark - OFFICIAL 5000m 17:24.1 24th · 5th on team 125.7 +0.036 PR CR SR CSR
2015-10-17 Hudson Mills Metropark - OFFICIAL 5000m 17:28.1 55th · 6th on team 125.0 +0.036 PR CR SR CSR
2015-10-03 Pearson's Metro Park 5000m 17:39 4th · 4th on team 117.1 -0.022 PR CR SR CSR
2015-09-29 Indian Creek OFFICIAL 5000m 17:46.6 29th · 4th on team 123.4 +0.039 CR CSR
2015-09-19 Springfield Oaks County Park OFFICIAL 5000m 17:46 39th · 4th on team 127.4 +0.067 ★CR CSR RSR
2015-09-10 Munson Park 5000m 17:41 28th · 4th on team 126.2 +0.054 PR ★CR SR CSR RSR
2015-09-04 Hillsdale College 5000m 18:24.1 6th · 5th on team 122.8 +0.070 ★CR SR CSR RSR
2015-08-27 Heritage Park (Adrian) OFFICIAL 5000m 18:46.4 30th · 8th on team 119.7 +0.084 CR SR CSR RSR

2014 XC 115.8

Temperance Bedford (MI) · Grade 9

Date Meet Event Result Place Rating Difficulty PR/SR Flags
2014-10-25 Lake Erie Metro Park OFFICIAL 5000m 18:18.5 12th · 1st on team 122.5 +0.055 PR CR SR CSR RSR
2014-10-04 Portage West MS 5000m 18:20 90th · 2nd on team 119.5 +0.038 PR CR SR CSR RSR
2014-09-23 Huron Meadows Metropark OFFICIAL 5000m 20:20.2 57th · 10th on team 110.7 +0.052 ★CR CSR
2014-09-20 Ella Sharp Park OFFICIAL 5000m 19:00.3 94th · 2nd on team 115.7 +0.038 PR CR SR CSR RSR
2014-09-09 Hudson Mills Metropark - OFFICIAL 5000m 19:44.8 80th · 9th on team 111.7 +0.036 PR CR SR CSR
2014-08-28 Heritage Park (Adrian) OFFICIAL 5000m 19:51.7 47th · 8th on team 114.7 +0.084 PR CR SR CSR RSR

2013 XC 116.2

Temperance Bedford (MI) · Grade 8

Date Meet Event Result Place Rating Difficulty PR/SR Flags
2013-10-19 Hudson Mills Metropark - OFFICIAL 2414m 12:33.1 60th · 4th on team 96.7 +0.025 ★PR ★CR SR CSR
2013-10-09 Heritage Park (Adrian) OFFICIAL 3200m 12:43 29th · 4th on team 133.8 +0.046 ★PR ★CR ★R SR CSR RSR
2013-09-28 Pearson's Metro Park 3200m 13:04.4 31st · 5th on team 117.6 -0.067 PR ★CR SR CSR
2013-09-25 Hudson Mills Metropark - OFFICIAL 3000m 13:19.8 12th · 5th on team 114.8 +0.001 ★PR ★CR SR CSR
2013-09-18 Indian Creek OFFICIAL 3200m +0.038
2013-09-13 Forest Akers East Golf Course 3200m 13:10 79th · 4th on team 129.5 +0.062 PR ★CR R SR CSR RSR
2013-09-11 Munson Park 3200m 14:34 45th · 6th on team 117.0 +0.034 ★CR R CSR RSR
2013-09-07 Hedges Boyer Park 3200m 14:08.7 5th · 5th on team 106.8 -0.089 PR ★CR SR CSR
2013-08-29 Indian Creek OFFICIAL 3200m 15:00 6th · 6th on team 113.3 +0.038 PR ★CR R SR CSR RSR

2012 XC 92.7

Temperance Bedford (MI) · Grade 7

Date Meet Event Result Place Rating Difficulty PR/SR Flags
2012-10-20 Hudson Mills Metropark - OFFICIAL 2816m 14:15.7 67th · 5th on team 100.3 ★PR ★CR SR CSR
2012-10-06 Portage West MS 1931m 11:47.9 52nd · 10th on team 81.3 ★PR ★CR SR CSR
2012-09-29 Pearson's Metro Park 2500m 15:02 89th · 13th on team 84.0 ★PR ★CR SR CSR
2012-09-26 Hudson Mills Metropark - OFFICIAL 3200m 15:32.2 64th · 10th on team 109.6 +0.062 PR ★CR R SR CSR RSR
2012-09-12 Tecumseh HS 2816m 17:06.2 96th · 13th on team 84.2 PR ★CR SR CSR
2012-09-08 Tiffin 3200m 16:22 4th · 4th on team 96.9 -0.045 PR ★CR R SR CSR RSR

Track & Field

2017 TF 116.0

Temperance Bedford (MI) · Grade 11

Date Meet Event Result Place Rating Difficulty PR/SR Flags
2017-05-19 MHSAA LP Regional 03-1 @ Saline 3200m 10:38.79 22nd · 1st on team 114.5 -0.042
2017-04-28 St. Francis Knight Relays 3200m 10:37.6 7th · 1st on team 114.6 -0.043
2017-04-13 Springfield Invitational 3200m 10:34 1st · 1st on team 116.5 -0.029
2017-04-08 Whitmer Golden W Invitational 3200m 10:22.02 4th · 1st on team 117.9 -0.040 ★PR SR RSR
2017-03-28 SEC Red: Bedford @ Pioneer 3200m 10:36.29 8th · 1st on team 116.7 -0.028 PR SR RSR

2016 TF 111.6

Temperance Bedford (MI) · Grade 10

Date Meet Event Result Place Rating Difficulty PR/SR Flags
2016-05-20 MHSAA LP Regional 03-1 @ Saline 1600m 5:04.25 19th · 2nd on team 110.5 -0.042
2016-05-13 SEC Red Division Finals 1600m 4:56.84 19th · 3rd on team 114.9 -0.033 ★PR SR RSR
2016-05-07 Fremont Invitational 1600m 5:02.29 12th · 2nd on team 112.0 -0.038 PR SR
2016-05-07 Fremont Invitational 3200m 10:52.19 6th · 2nd on team 112.5 -0.038
2016-05-03 SEC Tri: Huron/Skyline @ Bedford 3200m 10:44.8 3rd · 2nd on team 113.9 -0.033 PR SR RSR
2016-04-26 Bedford @ Monroe 400m 1:05.14 8th · 6th on team -0.032 ★PR SR
2016-04-26 Bedford @ Monroe 3200m 10:58.3 5th · 1st on team 111.9 -0.032
2016-04-23 Whitmore Lake HS Invite 3200m 10:53.78 6th · 2nd on team 113.4 -0.029 PR SR RSR
2016-04-19 Saline @ Bedford 1600m 5:07.48 20th · 6th on team 110.9 -0.033 PR SR
2016-04-19 Saline @ Bedford 800m 2:25.88 22nd · 8th on team 103.9 -0.033 ★PR SR
2016-04-12 SEC: Bedford @ Pioneer 3200m 10:58.22 9th · 3rd on team 112.5 -0.028 SR RSR

2015 TF 108.7

Temperance Bedford (MI) · Grade 9

Date Meet Event Result Place Rating Difficulty PR/SR Flags
2015-05-22 Freshman "State Meet" 3200m 11:12 1st · 1st on team 111.1 -0.022
2015-05-22 Freshman "State Meet" 1600m 5:10 2nd · 2nd on team 111.5 -0.022 PR SR
2015-05-13 Eagle Boys JV Invitational 100m 14.54 129th · 11th on team -0.033 ★PR SR
2015-05-13 Eagle Boys JV Invitational 3200m 10:55 12th · 1st on team 112.2 -0.033 PR SR RSR
2015-05-12 SEC: Bedford @ Huron 1600m 5:16.3 6th · 4th on team 109.0 -0.034
2015-05-07 SEC: Red Division Finals 3200m 11:14.4 21st · 3rd on team 110.3 -0.032
2015-05-05 SEC Dual: Bedford at Monroe 3200m 11:25 3rd · 3rd on team 107.5 -0.032
2015-04-28 SEC: Skyline @ Bedford 1600m 5:12.1 9th · 3rd on team 109.2 -0.033 PR SR
2015-04-27 St. Francis Freshman Invite 3200m 10:58.9 1st · 1st on team 110.8 -0.043 PR SR
2015-04-25 Whitmore Lake HS Invite 3200m 11:03.1 5th · 1st on team 111.6 -0.029 PR SR RSR
2015-04-21 SEC: Bedford @ Pioneer 1600m 5:32.85 15th · 2nd on team 104.3 -0.028 PR SR
2015-04-21 SEC: Bedford @ Pioneer 800m 2:37.2 14th · 4th on team 97.6 -0.028 PR SR
2015-04-16 Springfield Invitational 3200m 11:14.72 4th · 2nd on team 109.5 -0.029 PR SR RSR
2015-04-09 Whitmer Freshman Invite 3200m 11:15.6 2nd · 1st on team 108.9 -0.040 PR SR RSR